"read_dt","SO2 (ppb)","flags","PMT voltage (V)","lamp voltage (V)","lamp intensity (Hz)","internal temp (C)","react chamber temp (C)","sample flow (l/min)","pres (mmHg)","SO2 bkg (ppb)","SO2 coefficient"
2016-10-29 00:00:00,1598E-3,5C000000,-0724,0829,12201,023.7,045.3,0.458,739.0,01.18,0.508
2016-10-29 00:01:00,1572E-3,5C000000,-0724,0829,12270,023.7,045.3,0.459,739.2,01.18,0.508
2016-10-29 00:02:00,1508E-3,5C000000,-0724,0829,12149,023.7,045.4,0.459,739.2,01.18,0.508
2016-10-29 00:03:00,1474E-3,5C000000,-0724,0829,12197,023.7,045.3,0.459,738.9,01.18,0.508
2016-10-29 00:04:00,1566E-3,5C000000,-0724,0829,12171,023.7,045.3,0.459,739.0,01.18,0.508
2016-10-29 00:05:00,1552E-3,5C000000,-0724,0829,12170,023.7,045.3,0.459,739.2,01.18,0.508
2016-10-29 00:06:00,1554E-3,5C000000,-0724,0829,12145,023.7,045.3,0.459,739.1,01.18,0.508
2016-10-29 00:07:00,1549E-3,5C000000,-0724,0829,12185,023.7,045.3,0.458,739.1,01.18,0.508
2016-10-29 00:08:00,1606E-3,5C000000,-0724,0829,12349,023.7,045.3,0.459,739.0,01.18,0.508
2016-10-29 00:09:00,1624E-3,5C000000,-0724,0830,12200,023.7,045.3,0.459,738.9,01.18,0.508
2016-10-29 00:10:00,1504E-3,5C000000,-0724,0830,12239,023.7,045.3,0.459,738.9,01.18,0.508
2016-10-29 00:11:00,1604E-3,5C000000,-0724,0828,12200,023.7,045.4,0.459,738.7,01.18,0.508
2016-10-29 00:12:00,1427E-3,5C000000,-0724,0829,12217,023.7,045.3,0.459,738.8,01.18,0.508
2016-10-29 00:13:00,1747E-3,5C000000,-0724,0829,12156,023.7,045.3,0.459,738.9,01.18,0.508
2016-10-29 00:14:00,1652E-3,5C000000,-0724,0829,12241,023.7,045.3,0.458,738.8,01.18,0.508
2016-10-29 00:15:00,1689E-3,5C000000,-0724,0829,12179,023.7,045.4,0.459,739.1,01.18,0.508
2016-10-29 00:16:00,1632E-3,5C000000,-0724,0829,12279,023.7,045.3,0.459,739.0,01.18,0.508
2016-10-29 00:17:00,1551E-3,5C000000,-0724,0828,12180,023.7,045.3,0.459,738.9,01.18,0.508
2016-10-29 00:18:00,1577E-3,5C000000,-0724,0828,12238,023.7,045.3,0.459,738.8,01.18,0.508
2016-10-29 00:19:00,1612E-3,5C000000,-0724,0829,12271,023.7,045.3,0.459,738.9,01.18,0.508
2016-10-29 00:20:00,1617E-3,5C000000,-0724,0829,12324,023.7,045.3,0.459,738.7,01.18,0.508
2016-10-29 00:21:00,1492E-3,5C000000,-0724,0829,12113,023.7,045.4,0.458,739.0,01.18,0.508
2016-10-29 00:22:00,1597E-3,5C000000,-0724,0829,12251,023.7,045.3,0.459,739.0,01.18,0.508
2016-10-29 00:23:00,1690E-3,5C000000,-0724,0830,12163,023.7,045.3,0.458,739.0,01.18,0.508
2016-10-29 00:24:00,1596E-3,5C000000,-0724,0829,12163,023.7,045.4,0.459,739.0,01.18,0.508
2016-10-29 00:25:00,1627E-3,5C000000,-0724,0829,12109,023.7,045.3,0.458,738.8,01.18,0.508
2016-10-29 00:26:00,1558E-3,5C000000,-0724,0830,12123,023.7,045.3,0.459,739.0,01.18,0.508
2016-10-29 00:27:00,1440E-3,5C000000,-0724,0830,11928,023.7,045.3,0.459,738.9,01.18,0.508
2016-10-29 00:28:00,1498E-3,5C000000,-0724,0830,12077,023.7,045.3,0.459,739.0,01.18,0.508
2016-10-29 00:29:00,1577E-3,5C000000,-0724,0829,12252,023.7,045.3,0.459,738.8,01.18,0.508
2016-10-29 00:30:00,1693E-3,5C000000,-0724,0829,12171,023.7,045.3,0.458,738.9,01.18,0.508
2016-10-29 00:31:00,1630E-3,5C000000,-0724,0830,12105,023.7,045.3,0.459,739.0,01.18,0.508
2016-10-29 00:32:00,1646E-3,5C000000,-0724,0829,12251,023.7,045.3,0.458,738.9,01.18,0.508
2016-10-29 00:33:00,1533E-3,5C000000,-0724,0830,12143,023.7,045.3,0.459,738.8,01.18,0.508
2016-10-29 00:34:00,1659E-3,5C000000,-0724,0829,12127,023.7,045.3,0.459,738.7,01.18,0.508
2016-10-29 00:35:00,1537E-3,5C000000,-0724,0829,12213,023.7,045.3,0.458,738.6,01.18,0.508
2016-10-29 00:36:00,1508E-3,5C000000,-0724,0830,12034,023.7,045.3,0.459,738.7,01.18,0.508
2016-10-29 00:37:00,1638E-3,5C000000,-0724,0829,12195,023.7,045.3,0.458,738.8,01.18,0.508
2016-10-29 00:38:00,1640E-3,5C000000,-0724,0829,12382,023.7,045.4,0.459,738.7,01.18,0.508
2016-10-29 00:39:00,1485E-3,5C000000,-0724,0829,12265,023.7,045.4,0.458,738.7,01.18,0.508
2016-10-29 00:40:00,1573E-3,5C000000,-0724,0829,12202,023.7,045.3,0.459,738.8,01.18,0.508
2016-10-29 00:41:00,1631E-3,5C000000,-0724,0829,12321,023.7,045.3,0.458,738.6,01.18,0.508
2016-10-29 00:42:00,1518E-3,5C000000,-0724,0830,12226,023.7,045.3,0.459,738.6,01.18,0.508
2016-10-29 00:43:00,1558E-3,5C000000,-0724,0830,12135,023.7,045.3,0.459,738.7,01.18,0.508
2016-10-29 00:44:00,1573E-3,5C000000,-0724,0830,12192,023.7,045.3,0.459,738.6,01.18,0.508
2016-10-29 00:45:00,1601E-3,5C000000,-0724,0830,12175,023.7,045.3,0.459,738.5,01.18,0.508
2016-10-29 00:46:00,1532E-3,5C000000,-0724,0830,12166,023.7,045.3,0.458,738.5,01.18,0.508
2016-10-29 00:47:00,1575E-3,5C000000,-0724,0829,12251,023.7,045.3,0.459,738.4,01.18,0.508
2016-10-29 00:48:00,1617E-3,5C000000,-0724,0830,12200,023.7,045.3,0.458,738.6,01.18,0.508
2016-10-29 00:49:00,1563E-3,5C000000,-0724,0830,12138,023.7,045.3,0.459,738.3,01.18,0.508
2016-10-29 00:50:00,1582E-3,5C000000,-0724,0831,12389,023.7,045.3,0.458,738.1,01.18,0.508
2016-10-29 00:51:00,1687E-3,5C000000,-0724,0830,12254,023.7,045.3,0.459,738.5,01.18,0.508
2016-10-29 00:52:00,1488E-3,5C000000,-0724,0830,12289,023.7,045.3,0.458,738.1,01.18,0.508
2016-10-29 00:53:00,1632E-3,5C000000,-0724,0830,12407,023.7,045.3,0.459,737.9,01.18,0.508
2016-10-29 00:54:00,1599E-3,5C000000,-0724,0829,12210,023.7,045.3,0.458,738.1,01.18,0.508
2016-10-29 00:55:00,1548E-3,5C000000,-0724,0830,12361,023.7,045.3,0.459,738.5,01.18,0.508
2016-10-29 00:56:00,1514E-3,5C000000,-0724,0830,12208,023.7,045.4,0.458,738.1,01.18,0.508
2016-10-29 00:57:00,1558E-3,5C000000,-0724,0829,12114,023.7,045.3,0.459,738.5,01.18,0.508
2016-10-29 00:58:00,1602E-3,5C000000,-0724,0830,12383,023.7,045.4,0.458,738.4,01.18,0.508
2016-10-29 00:59:00,1559E-3,5C000000,-0724,0830,12160,023.7,045.3,0.458,738.5,01.18,0.508
2016-10-29 01:00:00,1509E-3,5C000000,-0724,0830,12165,023.7,045.3,0.458,738.4,01.18,0.508
2016-10-29 01:01:00,1550E-3,5C000000,-0724,0830,12177,023.7,045.3,0.459,738.6,01.18,0.508
2016-10-29 01:02:00,1586E-3,5C000000,-0724,0829,12325,023.7,045.3,0.459,738.4,01.18,0.508
2016-10-29 01:03:00,1579E-3,5C000000,-0724,0830,12323,023.7,045.3,0.459,738.6,01.18,0.508
2016-10-29 01:04:00,1620E-3,5C000000,-0724,0829,12277,023.7,045.3,0.459,738.6,01.18,0.508
2016-10-29 01:05:00,1532E-3,5C000000,-0724,0829,12307,023.7,045.3,0.459,738.9,01.18,0.508
2016-10-29 01:06:00,1566E-3,5C000000,-0724,0828,12099,023.7,045.4,0.459,738.9,01.18,0.508
2016-10-29 01:07:00,1500E-3,5C000000,-0724,0830,12298,023.7,045.4,0.458,738.7,01.18,0.508
2016-10-29 01:08:00,1520E-3,5C000000,-0724,0830,12301,023.7,045.3,0.459,738.7,01.18,0.508
2016-10-29 01:09:00,1564E-3,5C000000,-0724,0829,12226,023.7,045.3,0.458,738.8,01.18,0.508
2016-10-29 01:10:00,1587E-3,5C000000,-0724,0830,12160,023.7,045.3,0.459,738.6,01.18,0.508
2016-10-29 01:11:00,1712E-3,5C000000,-0724,0829,12180,023.7,045.3,0.458,738.6,01.18,0.508
2016-10-29 01:12:00,1500E-3,5C000000,-0724,0830,12204,023.7,045.3,0.459,738.8,01.18,0.508
2016-10-29 01:13:00,1623E-3,5C000000,-0724,0829,12117,023.7,045.3,0.458,738.4,01.18,0.508
2016-10-29 01:14:00,1672E-3,5C000000,-0724,0829,12293,023.7,045.3,0.459,738.8,01.18,0.508
2016-10-29 01:15:00,1476E-3,5C000000,-0724,0829,12216,023.7,045.3,0.458,738.7,01.18,0.508
2016-10-29 01:16:00,1481E-3,5C000000,-0724,0829,12235,023.7,045.3,0.459,738.7,01.18,0.508
2016-10-29 01:17:00,1598E-3,5C000000,-0724,0829,12237,023.7,045.3,0.458,738.8,01.18,0.508
2016-10-29 01:18:00,1516E-3,5C000000,-0724,0829,12162,023.7,045.3,0.459,738.8,01.18,0.508
2016-10-29 01:19:00,1455E-3,5C000000,-0724,0829,12219,023.7,045.3,0.458,738.4,01.18,0.508
2016-10-29 01:20:00,1633E-3,5C000000,-0724,0829,12267,023.7,045.3,0.459,738.4,01.18,0.508
2016-10-29 01:21:00,1530E-3,5C000000,-0724,0829,12294,023.7,045.4,0.458,738.7,01.18,0.508
2016-10-29 01:22:00,1511E-3,5C000000,-0724,0829,12127,023.7,045.4,0.459,738.6,01.18,0.508
2016-10-29 01:23:00,1653E-3,5C000000,-0724,0830,12120,023.7,045.3,0.458,738.4,01.18,0.508
2016-10-29 01:24:00,1634E-3,5C000000,-0724,0829,12174,023.7,045.3,0.459,738.5,01.18,0.508
2016-10-29 01:25:00,1555E-3,5C000000,-0724,0829,12216,023.7,045.4,0.458,738.3,01.18,0.508
2016-10-29 01:26:00,1614E-3,5C000000,-0724,0828,12223,023.7,045.3,0.459,738.4,01.18,0.508
2016-10-29 01:27:00,1514E-3,5C000000,-0724,0829,12135,023.7,045.3,0.458,738.4,01.18,0.508
2016-10-29 01:28:00,1678E-3,5C000000,-0724,0830,12294,023.7,045.3,0.459,738.5,01.18,0.508
2016-10-29 01:29:00,1560E-3,5C000000,-0724,0828,12175,023.7,045.4,0.459,738.8,01.18,0.508
2016-10-29 01:30:00,1495E-3,5C000000,-0724,0830,12218,023.7,045.3,0.459,738.6,01.18,0.508
2016-10-29 01:31:00,1563E-3,5C000000,-0724,0829,12222,023.7,045.3,0.459,738.4,01.18,0.508
2016-10-29 01:32:00,1511E-3,5C000000,-0724,0829,12047,023.7,045.3,0.458,738.7,01.18,0.508
2016-10-29 01:33:00,1448E-3,5C000000,-0724,0830,12325,023.7,045.3,0.459,738.6,01.18,0.508
2016-10-29 01:34:00,1637E-3,5C000000,-0724,0829,12302,023.7,045.3,0.458,738.6,01.18,0.508
2016-10-29 01:35:00,1657E-3,5C000000,-0724,0830,12026,023.7,045.3,0.459,738.6,01.18,0.508
2016-10-29 01:36:00,1587E-3,5C000000,-0724,0829,12114,023.7,045.3,0.458,738.6,01.18,0.508
2016-10-29 01:37:00,1632E-3,5C000000,-0724,0829,12307,023.7,045.3,0.459,738.3,01.18,0.508
2016-10-29 01:38:00,1467E-3,5C000000,-0724,0829,12163,023.7,045.3,0.458,738.6,01.18,0.508
2016-10-29 01:39:00,1658E-3,5C000000,-0724,0829,12230,023.7,045.3,0.459,738.4,01.18,0.508
2016-10-29 01:40:00,1462E-3,5C000000,-0724,0829,12124,023.7,045.3,0.458,738.4,01.18,0.508
2016-10-29 01:41:00,1566E-3,5C000000,-0724,0829,12282,023.7,045.3,0.459,738.5,01.18,0.508
2016-10-29 01:42:00,1530E-3,5C000000,-0724,0830,12367,023.7,045.4,0.458,738.5,01.18,0.508
2016-10-29 01:43:00,1517E-3,5C000000,-0724,0829,12298,023.7,045.4,0.459,738.7,01.18,0.508
2016-10-29 01:44:00,1662E-3,5C000000,-0724,0829,12159,023.7,045.3,0.458,738.5,01.18,0.508
2016-10-29 01:45:00,1709E-3,5C000000,-0724,0829,12092,023.7,045.3,0.459,738.4,01.18,0.508
2016-10-29 01:46:00,1628E-3,5C000000,-0724,0829,12152,023.7,045.3,0.458,738.1,01.18,0.508
2016-10-29 01:47:00,1665E-3,5C000000,-0724,0829,12206,023.7,045.4,0.459,738.4,01.18,0.508
2016-10-29 01:48:00,1478E-3,5C000000,-0724,0829,12317,023.7,045.3,0.458,738.3,01.18,0.508
2016-10-29 01:49:00,1595E-3,5C000000,-0724,0830,12272,023.7,045.3,0.459,738.4,01.18,0.508
2016-10-29 01:50:00,1575E-3,5C000000,-0724,0830,12180,023.7,045.3,0.458,738.2,01.18,0.508
2016-10-29 01:51:00,1632E-3,5C000000,-0724,0830,12171,023.7,045.3,0.459,738.5,01.18,0.508
2016-10-29 01:52:00,1548E-3,5C000000,-0724,0829,12268,023.7,045.3,0.458,738.4,01.18,0.508
2016-10-29 01:53:00,1620E-3,5C000000,-0724,0829,12038,023.7,045.3,0.459,738.6,01.18,0.508
2016-10-29 01:54:00,1608E-3,5C000000,-0724,0830,12161,023.7,045.3,0.458,738.0,01.18,0.508
2016-10-29 01:55:00,1533E-3,5C000000,-0724,0830,12136,023.7,045.3,0.459,737.8,01.18,0.508
2016-10-29 01:56:00,1610E-3,5C000000,-0724,0830,12158,023.7,045.3,0.458,738.1,01.18,0.508
2016-10-29 01:57:00,1468E-3,5C000000,-0724,0830,12202,023.7,045.3,0.459,737.9,01.18,0.508
2016-10-29 01:58:00,1669E-3,5C000000,-0724,0830,12079,023.7,045.3,0.458,738.3,01.18,0.508
2016-10-29 01:59:00,1546E-3,5C000000,-0724,0829,12267,023.7,045.3,0.459,738.4,01.18,0.508
2016-10-29 02:00:00,1589E-3,5C000000,-0724,0830,12201,023.7,045.3,0.458,738.2,01.18,0.508
2016-10-29 02:01:00,1600E-3,5C000000,-0724,0831,12234,023.7,045.3,0.459,738.2,01.18,0.508
2016-10-29 02:02:00,1656E-3,5C000000,-0724,0829,12228,023.7,045.4,0.458,738.4,01.18,0.508
2016-10-29 02:03:00,1677E-3,5C000000,-0724,0829,12046,023.7,045.3,0.459,738.3,01.18,0.508
2016-10-29 02:04:00,1499E-3,5C000000,-0724,0830,12242,023.7,045.3,0.458,738.0,01.18,0.508
2016-10-29 02:05:00,1608E-3,5C000000,-0724,0829,12132,023.7,045.3,0.459,738.4,01.18,0.508
2016-10-29 02:06:00,1633E-3,5C000000,-0724,0830,12206,023.7,045.4,0.458,738.3,01.18,0.508
2016-10-29 02:07:00,1555E-3,5C000000,-0724,0830,12246,023.7,045.3,0.459,738.4,01.18,0.508
2016-10-29 02:08:00,1636E-3,5C000000,-0724,0830,12242,023.7,045.3,0.459,738.1,01.18,0.508
2016-10-29 02:09:00,1435E-3,5C000000,-0724,0830,12225,023.7,045.3,0.459,738.2,01.18,0.508
2016-10-29 02:10:00,1664E-3,5C000000,-0724,0830,12083,023.7,045.3,0.459,738.1,01.18,0.508
2016-10-29 02:11:00,1458E-3,5C000000,-0724,0830,12065,023.7,045.4,0.458,737.8,01.18,0.508
2016-10-29 02:12:00,1489E-3,5C000000,-0724,0829,12305,023.6,045.4,0.459,738.2,01.18,0.508
2016-10-29 02:13:00,1562E-3,5C000000,-0724,0829,12179,023.6,045.3,0.458,738.6,01.18,0.508
2016-10-29 02:14:00,1693E-3,5C000000,-0724,0829,12137,023.6,045.3,0.459,738.3,01.18,0.508
2016-10-29 02:15:00,1633E-3,5C000000,-0724,0829,12211,023.6,045.3,0.458,738.1,01.18,0.508
2016-10-29 02:16:00,1585E-3,5C000000,-0724,0830,12158,023.6,045.3,0.459,738.3,01.18,0.508
2016-10-29 02:17:00,1678E-3,5C000000,-0724,0829,12218,023.6,045.3,0.458,738.5,01.18,0.508
2016-10-29 02:18:00,1659E-3,5C000000,-0724,0830,12174,023.6,045.3,0.459,738.2,01.18,0.508
2016-10-29 02:19:00,1532E-3,5C000000,-0724,0829,12304,023.6,045.3,0.458,737.9,01.18,0.508
2016-10-29 02:20:00,1504E-3,5C000000,-0724,0829,12142,023.6,045.3,0.459,738.3,01.18,0.508
2016-10-29 02:21:00,1575E-3,5C000000,-0724,0830,12117,023.6,045.3,0.458,738.4,01.18,0.508
2016-10-29 02:22:00,1477E-3,5C000000,-0724,0830,12348,023.6,045.3,0.459,738.2,01.18,0.508
2016-10-29 02:23:00,1594E-3,5C000000,-0724,0829,12195,023.6,045.3,0.458,738.2,01.18,0.508
2016-10-29 02:24:00,1589E-3,5C000000,-0724,0829,12112,023.6,045.3,0.459,738.4,01.18,0.508
2016-10-29 02:25:00,1531E-3,5C000000,-0724,0829,12204,023.6,045.3,0.458,738.3,01.18,0.508
2016-10-29 02:26:00,1512E-3,5C000000,-0724,0829,12085,023.6,045.3,0.459,738.1,01.18,0.508
2016-10-29 02:27:00,1624E-3,5C000000,-0724,0830,12264,023.6,045.3,0.458,738.2,01.18,0.508
2016-10-29 02:28:00,1673E-3,5C000000,-0724,0830,12284,023.6,045.3,0.459,738.2,01.18,0.508
2016-10-29 02:29:00,1480E-3,5C000000,-0724,0828,12193,023.6,045.3,0.458,737.7,01.18,0.508
2016-10-29 02:30:00,1526E-3,5C000000,-0724,0830,12283,023.6,045.3,0.459,738.1,01.18,0.508
2016-10-29 02:31:00,1597E-3,5C000000,-0724,0830,12260,023.6,045.3,0.458,738.0,01.18,0.508
2016-10-29 02:32:00,1744E-3,5C000000,-0724,0830,12284,023.6,045.3,0.459,737.8,01.18,0.508
2016-10-29 02:33:00,1514E-3,5C000000,-0724,0830,12165,023.6,045.3,0.458,737.7,01.18,0.508
2016-10-29 02:34:00,1439E-3,5C000000,-0724,0830,12192,023.6,045.4,0.459,737.9,01.18,0.508
2016-10-29 02:35:00,1621E-3,5C000000,-0724,0830,12239,023.6,045.4,0.459,738.0,01.18,0.508
2016-10-29 02:36:00,1599E-3,5C000000,-0724,0829,12258,023.6,045.3,0.459,738.2,01.18,0.508
2016-10-29 02:37:00,1623E-3,5C000000,-0724,0830,12189,023.6,045.3,0.459,738.2,01.18,0.508
2016-10-29 02:38:00,1623E-3,5C000000,-0724,0830,12202,023.6,045.3,0.458,738.1,01.18,0.508
2016-10-29 02:39:00,1568E-3,5C000000,-0724,0829,12042,023.6,045.3,0.459,737.6,01.18,0.508
2016-10-29 02:40:00,1382E-3,5C000000,-0724,0829,12188,023.6,045.3,0.458,737.9,01.18,0.508
2016-10-29 02:41:00,1490E-3,5C000000,-0724,0830,12311,023.6,045.3,0.459,737.8,01.18,0.508
2016-10-29 02:42:00,1548E-3,5C000000,-0724,0830,12242,023.6,045.3,0.458,738.2,01.18,0.508
2016-10-29 02:43:00,1615E-3,5C000000,-0724,0829,12289,023.6,045.3,0.459,737.8,01.18,0.508
2016-10-29 02:44:00,1499E-3,5C000000,-0724,0829,12225,023.6,045.3,0.458,737.7,01.18,0.508
2016-10-29 02:45:00,1669E-3,5C000000,-0724,0829,12296,023.6,045.4,0.459,738.0,01.18,0.508
2016-10-29 02:46:00,1364E-3,5C000000,-0724,0829,12140,023.6,045.3,0.458,737.9,01.18,0.508
2016-10-29 02:47:00,1600E-3,5C000000,-0724,0830,12308,023.6,045.3,0.459,738.0,01.18,0.508
2016-10-29 02:48:00,1590E-3,5C000000,-0724,0829,12118,023.6,045.3,0.458,738.2,01.18,0.508
2016-10-29 02:49:00,1677E-3,5C000000,-0724,0829,12278,023.6,045.3,0.459,737.7,01.18,0.508
2016-10-29 02:50:00,1679E-3,5C000000,-0724,0829,12306,023.6,045.3,0.458,737.9,01.18,0.508
2016-10-29 02:51:00,1401E-3,5C000000,-0724,0829,12348,023.6,045.3,0.459,737.7,01.18,0.508
2016-10-29 02:52:00,1595E-3,5C000000,-0724,0829,12189,023.6,045.3,0.459,737.8,01.18,0.508
2016-10-29 02:53:00,1479E-3,5C000000,-0724,0829,12195,023.6,045.3,0.459,737.7,01.18,0.508
2016-10-29 02:54:00,1532E-3,5C000000,-0724,0829,12203,023.6,045.3,0.458,737.8,01.18,0.508
2016-10-29 02:55:00,1595E-3,5C000000,-0724,0829,12134,023.6,045.4,0.458,737.7,01.18,0.508
2016-10-29 02:56:00,1480E-3,5C000000,-0724,0830,12309,023.6,045.3,0.459,738.0,01.18,0.508
2016-10-29 02:57:00,1530E-3,5C000000,-0724,0829,12130,023.6,045.3,0.458,737.7,01.18,0.508
2016-10-29 02:58:00,1658E-3,5C000000,-0724,0830,12069,023.6,045.3,0.459,737.9,01.18,0.508
2016-10-29 02:59:00,1595E-3,5C000000,-0724,0829,12157,023.6,045.3,0.458,737.9,01.18,0.508
2016-10-29 03:00:00,1642E-3,5C000000,-0724,0830,12246,023.6,045.3,0.458,737.6,01.18,0.508
2016-10-29 03:01:00,1587E-3,5C000000,-0724,0829,12052,023.6,045.3,0.458,737.7,01.18,0.508
2016-10-29 03:02:00,1585E-3,5C000000,-0724,0830,12222,023.6,045.3,0.459,737.7,01.18,0.508
2016-10-29 03:03:00,1589E-3,5C000000,-0724,0829,12102,023.6,045.3,0.458,737.9,01.18,0.508
2016-10-29 03:04:00,1722E-3,5C000000,-0724,0829,12141,023.6,045.3,0.458,737.3,01.18,0.508
2016-10-29 03:05:00,1589E-3,5C000000,-0724,0830,12261,023.6,045.3,0.458,737.8,01.18,0.508
2016-10-29 03:06:00,1463E-3,5C000000,-0724,0829,12165,023.6,045.3,0.459,738.0,01.18,0.508
2016-10-29 03:07:00,1562E-3,5C000000,-0724,0830,12150,023.6,045.3,0.458,737.3,01.18,0.508
2016-10-29 03:08:00,1451E-3,5C000000,-0724,0829,12173,023.6,045.3,0.458,737.6,01.18,0.508
2016-10-29 03:09:00,1527E-3,5C000000,-0724,0829,12148,023.6,045.3,0.459,737.7,01.18,0.508
2016-10-29 03:10:00,1481E-3,5C000000,-0724,0830,12158,023.6,045.3,0.458,737.5,01.18,0.508
2016-10-29 03:11:00,1637E-3,5C000000,-0724,0829,12184,023.6,045.3,0.459,737.4,01.18,0.508
2016-10-29 03:12:00,1578E-3,5C000000,-0724,0829,12297,023.6,045.3,0.458,737.7,01.18,0.508
2016-10-29 03:13:00,1600E-3,5C000000,-0724,0829,12241,023.6,045.3,0.459,737.8,01.18,0.508
2016-10-29 03:14:00,1600E-3,5C000000,-0724,0829,12271,023.6,045.3,0.458,737.8,01.18,0.508
2016-10-29 03:15:00,1487E-3,5C000000,-0724,0830,12177,023.6,045.3,0.459,737.7,01.18,0.508
2016-10-29 03:16:00,1674E-3,5C000000,-0724,0829,12127,023.6,045.3,0.458,737.7,01.18,0.508
2016-10-29 03:17:00,1464E-3,5C000000,-0724,0830,12083,023.6,045.3,0.458,737.6,01.18,0.508
2016-10-29 03:18:00,1584E-3,5C000000,-0724,0830,12251,023.6,045.3,0.459,737.6,01.18,0.508
2016-10-29 03:19:00,1618E-3,5C000000,-0724,0829,12235,023.6,045.3,0.458,737.5,01.18,0.508
2016-10-29 03:20:00,1630E-3,5C000000,-0724,0829,12153,023.6,045.3,0.459,737.7,01.18,0.508
2016-10-29 03:21:00,1620E-3,5C000000,-0724,0829,12101,023.6,045.3,0.458,737.8,01.18,0.508
2016-10-29 03:22:00,1643E-3,5C000000,-0724,0829,12270,023.6,045.3,0.459,737.5,01.18,0.508
2016-10-29 03:23:00,1580E-3,5C000000,-0724,0829,12270,023.6,045.3,0.458,737.5,01.18,0.508
2016-10-29 03:24:00,1629E-3,5C000000,-0724,0830,12286,023.5,045.3,0.459,737.5,01.18,0.508
2016-10-29 03:25:00,1596E-3,5C000000,-0724,0829,12107,023.6,045.3,0.458,737.6,01.18,0.508
2016-10-29 03:26:00,1467E-3,5C000000,-0724,0829,12245,023.6,045.3,0.459,737.1,01.18,0.508
2016-10-29 03:27:00,1491E-3,5C000000,-0724,0828,12167,023.6,045.3,0.458,737.0,01.18,0.508
2016-10-29 03:28:00,1549E-3,5C000000,-0724,0829,12263,023.5,045.3,0.458,737.2,01.18,0.508
2016-10-29 03:29:00,1655E-3,5C000000,-0724,0830,12135,023.6,045.3,0.459,737.4,01.18,0.508
2016-10-29 03:30:00,1726E-3,5C000000,-0724,0829,12174,023.6,045.3,0.458,737.7,01.18,0.508
2016-10-29 03:31:00,1463E-3,5C000000,-0724,0828,12200,023.5,045.4,0.459,737.7,01.18,0.508
2016-10-29 03:32:00,1458E-3,5C000000,-0724,0829,12143,023.5,045.3,0.458,737.3,01.18,0.508
2016-10-29 03:33:00,1598E-3,5C000000,-0724,0831,12051,023.5,045.3,0.459,737.4,01.18,0.508
2016-10-29 03:34:00,1715E-3,5C000000,-0724,0830,12230,023.6,045.3,0.458,737.1,01.18,0.508
2016-10-29 03:35:00,1563E-3,5C000000,-0724,0829,12139,023.6,045.3,0.459,737.2,01.18,0.508
2016-10-29 03:36:00,1611E-3,5C000000,-0724,0829,12307,023.5,045.3,0.458,737.7,01.18,0.508
2016-10-29 03:37:00,1543E-3,5C000000,-0724,0830,12133,023.5,045.3,0.459,737.3,01.18,0.508
2016-10-29 03:38:00,1652E-3,5C000000,-0724,0829,12139,023.5,045.3,0.458,737.5,01.18,0.508
2016-10-29 03:39:00,1526E-3,5C000000,-0724,0830,12201,023.5,045.3,0.458,737.7,01.18,0.508
2016-10-29 03:40:00,1558E-3,5C000000,-0724,0830,12152,023.5,045.3,0.459,737.3,01.18,0.508
2016-10-29 03:41:00,1586E-3,5C000000,-0724,0830,12132,023.5,045.3,0.458,737.4,01.18,0.508
2016-10-29 03:42:00,1554E-3,5C000000,-0724,0829,12269,023.5,045.3,0.459,737.4,01.18,0.508
2016-10-29 03:43:00,1534E-3,5C000000,-0724,0830,12153,023.6,045.3,0.458,737.4,01.18,0.508
2016-10-29 03:44:00,1539E-3,5C000000,-0724,0829,12194,023.5,045.3,0.459,737.6,01.18,0.508
2016-10-29 03:45:00,1611E-3,5C000000,-0724,0829,12121,023.5,045.3,0.458,737.4,01.18,0.508
2016-10-29 03:46:00,1658E-3,5C000000,-0724,0829,12272,023.5,045.3,0.458,737.7,01.18,0.508
2016-10-29 03:47:00,1604E-3,5C000000,-0724,0831,12313,023.5,045.3,0.459,737.3,01.18,0.508
2016-10-29 03:48:00,1499E-3,5C000000,-0724,0829,12221,023.5,045.3,0.458,737.3,01.18,0.508
2016-10-29 03:49:00,1463E-3,5C000000,-0724,0829,12205,023.5,045.3,0.459,737.6,01.18,0.508
2016-10-29 03:50:00,1479E-3,5C000000,-0724,0829,12307,023.5,045.3,0.458,737.3,01.18,0.508
2016-10-29 03:51:00,1647E-3,5C000000,-0724,0830,12297,023.5,045.3,0.459,737.4,01.18,0.508
2016-10-29 03:52:00,1562E-3,5C000000,-0724,0830,12059,023.5,045.3,0.458,737.3,01.18,0.508
2016-10-29 03:53:00,1424E-3,5C000000,-0724,0830,11944,023.5,045.3,0.459,737.5,01.18,0.508
2016-10-29 03:54:00,1523E-3,5C000000,-0724,0829,12220,023.5,045.3,0.458,737.4,01.18,0.508
2016-10-29 03:55:00,1612E-3,5C000000,-0724,0829,12203,023.5,045.3,0.459,737.4,01.18,0.508
2016-10-29 03:56:00,1560E-3,5C000000,-0724,0829,12231,023.5,045.3,0.458,737.2,01.18,0.508
2016-10-29 03:57:00,1636E-3,5C000000,-0724,0829,12282,023.5,045.3,0.459,737.7,01.18,0.508
2016-10-29 03:58:00,1615E-3,5C000000,-0724,0829,12191,023.5,045.3,0.459,737.4,01.18,0.508
2016-10-29 03:59:00,1586E-3,5C000000,-0724,0829,12151,023.5,045.3,0.458,737.2,01.18,0.508
2016-10-29 04:00:00,1594E-3,5C000000,-0724,0829,12216,023.5,045.3,0.459,737.7,01.18,0.508
2016-10-29 04:01:00,1510E-3,5C000000,-0724,0830,12061,023.5,045.3,0.458,737.4,01.18,0.508
2016-10-29 04:02:00,1569E-3,5C000000,-0724,0829,12244,023.5,045.3,0.459,737.4,01.18,0.508
2016-10-29 04:03:00,1587E-3,5C000000,-0724,0829,12187,023.5,045.3,0.458,737.4,01.18,0.508
2016-10-29 04:04:00,1576E-3,5C000000,-0724,0828,12292,023.5,045.3,0.459,737.2,01.18,0.508
2016-10-29 04:05:00,1563E-3,5C000000,-0724,0829,12239,023.5,045.3,0.458,737.3,01.18,0.508
2016-10-29 04:06:00,1556E-3,5C000000,-0724,0829,12182,023.5,045.3,0.459,737.4,01.18,0.508
2016-10-29 04:07:00,1626E-3,5C000000,-0724,0829,12259,023.5,045.3,0.459,737.5,01.18,0.508
2016-10-29 04:08:00,1627E-3,5C000000,-0724,0829,12333,023.5,045.3,0.458,737.3,01.18,0.508
2016-10-29 04:09:00,1587E-3,5C000000,-0724,0829,12121,023.5,045.3,0.458,737.6,01.18,0.508
2016-10-29 04:10:00,1646E-3,5C000000,-0724,0830,12397,023.5,045.3,0.458,737.3,01.18,0.508
2016-10-29 04:11:00,1455E-3,5C000000,-0724,0829,12182,023.5,045.4,0.459,737.2,01.18,0.508
2016-10-29 04:12:00,1496E-3,5C000000,-0724,0830,12287,023.5,045.3,0.458,737.2,01.18,0.508
2016-10-29 04:13:00,1494E-3,5C000000,-0724,0829,12366,023.5,045.3,0.459,736.9,01.18,0.508
2016-10-29 04:14:00,1675E-3,5C000000,-0724,0829,12155,023.5,045.3,0.459,737.5,01.18,0.508
2016-10-29 04:15:00,1607E-3,5C000000,-0724,0829,12238,023.5,045.3,0.458,737.2,01.18,0.508
2016-10-29 04:16:00,1566E-3,5C000000,-0724,0829,12231,023.5,045.3,0.459,737.1,01.18,0.508
2016-10-29 04:17:00,1629E-3,5C000000,-0724,0830,12287,023.5,045.3,0.458,737.0,01.18,0.508
2016-10-29 04:18:00,1569E-3,5C000000,-0724,0830,12203,023.5,045.3,0.459,737.4,01.18,0.508
2016-10-29 04:19:00,1621E-3,5C000000,-0724,0829,12217,023.5,045.3,0.458,737.5,01.18,0.508
2016-10-29 04:20:00,1619E-3,5C000000,-0724,0830,12245,023.5,045.3,0.458,737.5,01.18,0.508